COSMOS 2251 DEB, 40218

Orbit data source: Space-Track

COSMOS 2251 DEB, 40218 is space debris in LEO originally from a launch on Wed, 16 Jun 1993 UTC launched from the Plesetsk Missile And Space Complex (PKMTR). The debris from Iridium 33, an American commercial communications satellite, has been tracked extensively since its accidental collision with the defunct Russian satellite Cosmos 2251 in 2009. This event, occurring at high speed in low Earth orbit (LEO), generated thousands of pieces of space debris, significantly increasing the risk of further collisions. The Iridium 33 debris cloud has impacted space traffic management and orbital debris mitigation strategies, making it a subject of ongoing study in space situational awareness.

Loading next visibility...
Identifier
40218, 1993-036BUX
Orbit
LEO
Country
Flag of CISCIS
Related business
Manufacturer
Unknown
Mission
Spacecraft
Bus & Motor
Unknown
Mass
Unknown
Launch date (UTC)
1993-06-16 (33 years ago)
Launch vehicle
Unknown
Launch site
Plesetsk Missile And Space Complex (PKMTR)
Object type
Payload
Rocket body
Debris
Shape & HBR
Unknown shape, 0.1 m
Radar Cross Section
Small (<0.1 m²)

Expand to show TLE details & history
Last TLE update: 4 days ago

TLE from 4 days ago
0 COSMOS 2251 DEB
1 40218U 93036BUX 26031.05359590  .00001627  00000-0  50564-3 0  9993
2 40218  74.0302 157.4354 0017355 237.6470 122.3006 14.41741107595724
Epoch: 2026-01-31T01:17Z
TLE epoch observation values (Epoch: 2026-01-31T01:17:10.685Z)
Latitude
-0.00008°
Longitude
7.85775°
Altitude
761.999 km
Speed
7.47 km/s
True Right ascension
10h 29m 44s
True Declination
0° 00' 00"
Sunlit
Object was in full shadow at epoch
Visualization orbit readout
Latitude
Unknown
Longitude
Unknown
Altitude
Unknown
Speed
Unknown
Apparent Right ascension
Unknown
Apparent Declination
Unknown
Sunlit
N/A
Visualization observer readout
Local Sidereal Time
16:33:17
Azimuth
Unknown
Elevation
Unknown
Doppler factor
Unknown
Orbital elements
Apogee altitude
762.741 km
Perigee altitude
737.998 km
Semi-major axis
7,128.507 km
Eccentricity
0.00174
Inclination
74.0302°
RAAN
157.4354°
Arg. of periapsis
237.647°
True anomaly
122.4685°
Mean anomaly
122.3006°
Eccentric anomaly
122.38457°
Mean motion
3.60616 °/min
Orbital period
99.83 mins
BSTAR
0.00050564
Loading maneuver chart data...
Computing Atmospheric mass density...
Loading historical data...
Loading historical data...
Loading historical data...
Loading historical data...
Loading historical data...
Loading historical data...
Loading historical data...

Documentation

Showing up to 5 results
|